STARLINK-5703, 55593

Orbit data source: Space-Track

STARLINK-5703, 55593 is a payload satellite owned by SpaceX/Seattle (US) in LEO that was launched on Sun, 12 Feb 2023 UTC via an FALCON 9 launch vehicle from the Air Force Eastern Test Range (AFETR). Payload-class satellites include a variety of spacecraft equipped with specific instruments for various scientific and technological missions. These include communications satellites like Starlink; space stations such as the ISS; scientific satellites like the Hubble; Earth observation satellites from companies like Planet Labs, Umbra, and HawkEye 360; GPS; miniature CubeSats for education and research; and military/defense satellites.

Loading next visibility...
Identifier
55593, 2023-020AA
Orbit
LEO
Country
Flag of USUS
Related business
Manufacturer
SpaceX/Seattle
Mission
Operational spacecraft
Bus & Motor
STARLINK, Unknown motor
Mass
305 kg wet, ~290 kg dry
Launch date (UTC)
2023-02-12 (3 years ago)
Launch vehicle
FALCON 9
Launch site
Air Force Eastern Test Range (AFETR)
Object type
Payload
Rocket body
Debris
Shape & HBR
Unknown shape, 10.1 m
Radar Cross Section
Large (>1 m²)

Expand to show TLE details & history
Last TLE update: 10 hours ago

TLE from 10 hours ago
0 STARLINK-5703
1 55593U 23020AA  26045.29987993  .00007928  00000-0  60133-3 0  9999
2 55593  43.0036 131.4974 0001444 288.1333  71.9352 15.02534289165407
Epoch: 2026-02-14T07:11Z
TLE epoch observation values (Epoch: 2026-02-14T07:11:49.625Z)
Latitude
-0.00004°
Longitude
-120.78433°
Altitude
558.553 km
Speed
7.584 km/s
True Right ascension
08h 45m 59s
True Declination
0° 00' 00"
Sunlit
Object was in full shadow at epoch
Visualization orbit readout
Latitude
Unknown
Longitude
Unknown
Altitude
Unknown
Speed
Unknown
Apparent Right ascension
Unknown
Apparent Declination
Unknown
Sunlit
N/A
Visualization observer readout
Local Sidereal Time
19:58:15
Azimuth
Unknown
Elevation
Unknown
Doppler factor
Unknown
Orbital elements
Apogee altitude
562.01 km
Perigee altitude
560.006 km
Semi-major axis
6,939.145 km
Eccentricity
0.00014
Inclination
43.0036°
RAAN
131.4974°
Arg. of periapsis
288.1333°
True anomaly
71.95093°
Mean anomaly
71.9352°
Eccentric anomaly
71.94307°
Mean motion
3.75478 °/min
Orbital period
95.88 mins
BSTAR
0.00060133
Loading maneuver chart data...
Computing Atmospheric mass density...
Loading historical data...
Loading historical data...
Loading historical data...
Loading historical data...
Loading historical data...
Loading historical data...
Loading historical data...

Documentation

Showing up to 5 results
|